Flag for Czech Republic Weather past 2 weeks in Tábor, Czech Republic

Now
65 °F

Fog.


Feels Like: 65 °F
Forecast: 55 / 73 °F
Wind: N/A

Location: Kocelovice

Current Time: Jul 31, 2014 at 12:52:49 AM

Latest Report: Jul 31, 2014 at 12:00 AM


Visibility: 3 mi

Pressure: 29.82 "Hg

Humidity: N/A

Dew point: N/A

Location of TáborLocation

Historic Weather in Tábor — Graph

°F

Tábor temperature yesterday

Maximum temperature yesterday: 79 °F (at 2:00 PM)
Minimum temperature yesterday: 61 °F (at 4:00 AM)
Average temperature yesterday: 67 °F

Past Weeks' High & Low Weather Summary

 TemperatureHumidityPressure
High88 °F (Jul 20, 5:00 PM)100% (Jul 25, 6:00 AM)30.17 "Hg (Jul 25, 6:00 AM)
Low52 °F (Jul 25, 5:00 AM)29% (Jul 19, 6:00 PM)29.67 "Hg (Jul 29, 5:00 PM)
Average69 °F72%29.91 "Hg
* Reported Midnight between Jul 15 and Jul 16 — Jul 30 11:00 PM, Tábor, Weather by CustomWeather, © 2014

Note: Actual official high and low records may vary slightly from our data, if they occured in-between our weather recording intervals... More about our weather records

Advertising

Tábor weather history for previous 24 hours

 ConditionsComfort  
Time TempWeatherWind HumidityBarometerVisibility
11:00 PM
Jul 30
64 °FFog.N/A96%29.81 "Hg4 mi
10:00 PM65 °FLow clouds.2 mph89%29.80 "Hg7 mi
9:00 PM66 °FLow clouds.1 mph90%29.78 "Hg8 mi
8:00 PM67 °FLight rain. Low clouds.N/A91%29.75 "Hg5 mi
7:00 PM67 °FLight rain. Low clouds.N/A94%29.74 "Hg7 mi
6:00 PM68 °FLight rain. Overcast.2 mph85%29.74 "Hg7 mi
5:00 PM69 °FThunderstorms. Overcast.2 mph76%29.74 "Hg9 mi
4:00 PM70 °FOvercast.5 mph68%29.72 "Hg11 mi
3:00 PM76 °FThunderstorms. Overcast.3 mph55%29.69 "Hg12 mi
2:00 PM79 °FOvercast.6 mph60%29.68 "Hg14 mi
1:00 PM74 °FOvercast.N/A69%29.70 "Hg12 mi
12:00 PM71 °FOvercast.N/A73%29.72 "Hg8 mi
11:00 AM69 °FFog.N/A85%29.73 "Hg5 mi
10:00 AM66 °FLow clouds.N/A96%29.72 "Hg3 mi
9:00 AM64 °FDrizzle. Low clouds.N/A99%29.72 "Hg1 mi
8:00 AM64 °FFog.No wind98%29.72 "Hg1 mi
7:00 AM63 °FFog.No wind99%29.71 "Hg2 mi
6:00 AM61 °FCool.1 mph100%29.71 "Hg1 mi
5:00 AM61 °FDuststorm.2 mph99%29.71 "Hg1 mi
4:00 AM61 °FDuststorm.3 mph99%29.71 "Hg1 mi
3:00 AM63 °FFog.1 mph97%29.71 "Hg4 mi
2:00 AM63 °FFog.2 mph98%29.70 "Hg3 mi
1:00 AM64 °FMild.2 mph94%29.71 "Hg7 mi
12:00 AM64 °FMild.3 mph94%29.72 "Hg7 mi
Weather by CustomWeather, © 2014

See weather overviewHow to use our weather pages